Location: Unspecified
(0.0000°N, 0.0000°E)
Time: 16:08:42
(UTC+00:00)

Transit 2A - Visible Passes

Search period start: 12 April 2021 00:00
Search period end: 22 April 2021 00:00
Orbit: 602 x 957 km, 66.7° (Epoch: 11 April)

Date Brightness Start Highest point End Pass type
(mag) Time Alt. Az. Time Alt. Az. Time Alt. Az.
12 Apr 6.5 19:35:16 10° NNW 19:40:05 57° WSW 19:43:30 22° S visible
13 Apr 5.9 19:01:02 10° NNW 19:05:57 84° ENE 19:11:27 10° SSE visible
14 Apr 6.2 18:27:07 10° N 18:31:51 48° ENE 18:37:05 10° SE visible
14 Apr 9.0 20:14:33 10° WSW 20:15:01 10° WSW 20:15:31 10° WSW visible
15 Apr 9.4 05:23:54 10° ESE 05:24:37 10° ESE 05:25:20 10° ESE visible
15 Apr 8.6 19:37:19 10° WNW 19:40:46 18° WSW 19:44:25 10° SSW visible
16 Apr 7.9 19:02:08 10° NW 19:06:31 30° WSW 19:11:19 10° S visible
17 Apr 7.0 18:27:28 10° NW 18:32:19 51° WSW 18:37:42 10° S visible
18 Apr 7.9 05:20:20 10° S 05:25:23 32° ESE 05:29:59 10° NE visible
19 Apr 8.6 04:47:08 10° SSE 04:51:08 20° ESE 04:54:53 10° ENE visible
20 Apr 9.0 04:15:11 10° SE 04:16:53 11° ESE 04:18:33 10° E visible
20 Apr 8.8 18:29:47 10° WNW 18:33:00 17° WSW 18:36:25 10° SSW visible
21 Apr 6.0 05:20:18 10° SSW 05:25:57 80° WNW 05:31:00 10° NNE visible
